Location: *
(32.8140°S, 174.6161°E)
Time: 19:40:08
(UTC+00:00)

Cosmos 2221 - Pass Details

Date: 10 December 2019
Orbit: 592 x 617 km, 82.5° (Epoch: 25 January)

Event Time Altitude Azimuth Distance (km) Brightness Sun altitude
Exits shadow 14:48:12 34° 237° (WSW) 1,004 3.5 -23.3°
Drops below altitude 10° 14:51:29 10° 192° (SSW) 1,952 5.6 -22.8°
Sets 14:53:51 0° 183° (S) 2,862 6.7 -22.5°
